Vorticity
7 4 4 4 3 4 2 3 4 3 5 5 4 5 5 6 6 6 6 7 9 8 5 4 4 3 3 4 4 4 4 4 4 4 5 4 2 3 4 6 7 8 9 9 9 8 7 7 7 6 5 5
4 5 4 4 3 3 4 3 4 4 5 5 5 5 5 6 6 6 6 7 8 9 6 4 5 4 3 4 3 4 3 4 4 4 4 4 3 2 3 4 6 6 7 9 9 9 8 7 8 7 6 5
3 6 4 4 5 2 4 5 4 4 5 5 5 6 6 6 6 7 7 7 8 8 6 4 5 4 3 3 3 4 3 3 4 4 3 4 5 3 3 3 4 6 6 7 8 9 9 9 9 7 7 7
1 4 4 3 5 4 3 5 6 4 5 6 6 6 6 7 6 7 7 7 8 8 7 5 5 5 4 3 3 4 3 3 4 4 4 4 5 4 3 3 3 4 5 7 7 7 8 9 10 9 8 7
4 5 5 4 2 5 6 5 6 5 5 6 6 7 7 8 7 6 7 7 8 8 8 6 6 5 4 4 3 4 3 3 4 4 4 4 5 5 4 4 3 3 4 5 7 7 7 7 8 9 9 8
6 5 1 3 3 4 6 6 6 5 5 6 6 6 6 8 7 6 7 7 8 8 8 6 6 6 4 4 3 4 4 3 3 3 4 5 5 5 5 4 3 2 3 3 4 6 7 7 7 8 9 9
5 5 2 1 4 4 4 5 6 6 6 6 6 5 5 8 8 7 6 7 8 7 8 7 5 6 5 4 3 3 4 3 3 3 3 4 5 5 5 4 4 3 2 3 3 4 5 6 7 8 8 8
5 -2 1 2 2 3 3 3 4 6 6 6 6 5 5 7 9 7 6 7 8 7 7 7 5 5 6 4 4 4 3 4 3 3 3 4 5 5 5 5 4 4 3 3 3 4 4 4 5 7 8 8
3 -2 -0 2 3 3 4 4 4 5 6 6 7 8 6 6 9 8 6 7 7 8 7 7 6 5 6 5 4 4 3 4 3 3 4 4 5 4 5 5 4 4 4 4 4 4 4 4 4 5 6 7
-4 -4 4 4 1 1 0 1 3 5 6 7 7 8 7 6 8 8 7 6 6 7 7 7 7 5 6 6 4 4 4 4 4 3 4 4 5 5 5 5 5 5 4 4 4 4 5 4 4 4 5 6
0 -6 9 10 5 4 3 2 2 4 5 6 7 7 7 7 8 9 7 6 6 6 8 7 7 6 6 6 5 4 4 4 4 4 4 4 4 5 5 5 5 5 4 5 5 4 5 5 5 4 4 5
3 0 5 5 3 5 4 2 2 4 6 6 7 6 7 7 7 10 8 6 6 5 7 7 6 6 5 6 6 5 4 4 4 4 4 4 4 4 4 5 4 4 5 5 5 5 5 5 5 5 5 5
-10 -8 -5 -3 -0 1 -2 -1 2 3 5 6 6 6 6 7 7 10 11 7 6 6 6 6 7 6 5 6 6 6 5 4 5 5 4 4 4 4 4 4 4 4 4 4 5 5 5 5 5 6 6 5
-2 -5 -5 -0 2 2 2 3 5 4 5 5 6 7 5 6 7 9 12 9 5 6 6 6 6 6 6 5 5 6 6 5 4 4 5 5 4 4 4 4 4 4 4 4 4 4 5 5 5 5 6 6
8 7 4 5 5 4 6 5 5 4 4 5 5 7 6 5 7 7 12 12 7 6 6 6 6 5 6 6 5 5 6 6 4 4 5 5 5 4 5 4 4 4 4 4 4 5 5 5 6 5 6 6
6 7 8 7 7 5 5 4 3 5 4 5 5 7 6 5 7 7 11 13 8 5 6 6 6 6 5 5 5 4 6 7 5 5 4 5 5 5 5 5 4 4 4 5 5 5 6 6 6 6 6 6
9 7 8 5 7 6 5 4 3 4 4 4 5 7 7 5 7 7 9 14 10 5 6 6 6 7 5 5 5 4 4 6 6 6 5 5 5 5 5 5 5 5 4 4 5 5 6 6 6 7 7 6
18 10 8 6 5 4 3 4 5 4 4 5 5 6 6 5 7 7 7 12 11 7 6 6 6 6 7 6 5 5 4 5 6 6 6 5 4 5 5 5 5 5 5 5 4 4 4 5 6 7 8 8
7 7 12 14 8 6 5 4 5 5 5 6 6 6 7 7 6 6 7 10 10 8 7 6 6 6 7 7 5 5 5 4 5 6 6 6 5 5 4 5 5 5 6 5 5 5 4 4 5 7 8 9
4 8 13 17 10 6 8 8 9 8 7 6 6 7 7 9 8 7 7 9 9 7 8 7 6 6 6 7 7 6 6 5 5 5 6 7 6 6 5 4 5 5 5 5 5 5 4 4 4 6 7 9
11 4 8 17 18 15 10 10 9 7 7 7 7 9 10 10 9 10 8 7 8 7 8 8 6 6 6 6 7 7 7 6 5 5 5 6 6 6 6 5 4 4 5 5 5 4 4 4 4 5 6 8
5 3 9 10 13 22 20 15 13 10 10 10 11 11 11 11 10 10 10 7 7 7 8 8 7 6 5 6 7 7 7 6 5 5 5 5 6 6 6 6 5 4 4 4 5 5 4 3 3 4 5 6
7 4 12 15 8 11 16 16 15 13 12 13 15 13 9 9 9 8 9 9 7 7 8 8 8 7 5 5 6 7 7 7 6 5 5 5 5 6 5 6 5 4 4 4 5 5 4 4 4 4 4 4
16 -5 -3 19 20 9 7 9 9 11 9 7 7 11 13 10 9 8 7 10 8 6 8 8 8 8 6 5 5 6 6 7 7 6 5 5 5 6 5 5 5 5 5 4 5 4 4 4 3 4 4 3
12 -2 -17 -7 10 13 10 7 9 12 8 11 16 13 14 15 11 10 7 8 10 7 7 7 8 8 6 5 4 5 6 7 7 7 7 6 5 5 5 5 5 5 5 5 5 3 3 4 4 4 3 3
8 9 1 -6 -1 7 16 14 8 7 2 11 22 5 0 13 16 16 12 8 9 8 7 7 6 7 6 5 4 4 5 6 7 7 7 7 6 6 5 5 5 5 5 5 4 4 4 5 4 3 3 4
14 8 10 11 0 -9 11 23 5 3 7 7 10 -3 -6 8 11 13 14 11 11 10 9 7 6 7 6 4 4 4 4 5 6 6 6 6 6 6 5 5 5 5 5 4 4 4 4 4 3 3 5 4
12 4 1 8 12 -2 2 19 5 -4 5 6 8 6 1 4 4 6 9 9 11 11 10 8 6 7 7 5 4 5 5 4 5 6 6 7 6 6 6 5 5 4 4 4 4 4 4 3 3 5 4 1
5 7 2 -4 8 10 -0 9 10 -3 -3 2 7 9 7 7 9 9 10 9 6 7 10 10 8 8 7 6 5 5 5 6 6 7 7 6 6 6 6 6 5 5 4 4 4 4 4 3 4 4 2 1
3 6 12 -0 -5 8 5 2 9 7 7 10 9 9 9 9 9 10 17 20 12 7 10 11 10 10 9 8 7 7 7 7 7 7 7 6 6 6 6 5 5 5 5 4 4 4 4 3 4 3 2 3
6 3 10 10 -1 4 7 1 3 5 6 9 8 7 6 8 11 11 16 20 17 12 12 14 14 13 12 11 10 9 8 9 9 9 8 7 7 7 6 6 6 6 5 4 4 4 4 4 3 3 3 4
Height
5744 5746 5747 5749 5751 5753 5756 5758 5760 5761 5762 5763 5764 5766 5767 5768 5769 5770 5771 5771 5772 5772 5773 5774 5774 5775 5776 5777 5777 5778 5778 5779 5779 5779 5780 5780 5781 5781 5781 5780 5780 5780 5780 5781 5781 5782 5782 5782 5783 5783 5783 5783
5740 5742 5744 5745 5747 5750 5752 5755 5757 5758 5759 5760 5761 5762 5764 5765 5766 5767 5768 5768 5769 5770 5770 5771 5772 5772 5773 5774 5775 5776 5776 5776 5777 5777 5778 5778 5779 5779 5779 5779 5778 5779 5779 5779 5779 5780 5780 5781 5781 5781 5781 5781
5736 5738 5740 5741 5744 5746 5748 5751 5753 5755 5756 5757 5758 5759 5761 5762 5763 5764 5765 5766 5767 5767 5768 5768 5769 5770 5771 5772 5773 5773 5774 5774 5774 5775 5776 5776 5777 5777 5777 5777 5777 5777 5777 5777 5778 5778 5778 5779 5779 5780 5780 5780
5732 5735 5736 5738 5740 5742 5745 5748 5750 5751 5753 5753 5755 5756 5757 5758 5760 5761 5762 5763 5764 5764 5765 5766 5766 5767 5768 5769 5770 5771 5771 5772 5772 5772 5773 5774 5774 5775 5775 5775 5775 5776 5776 5776 5776 5776 5776 5777 5777 5777 5777 5778
5730 5732 5732 5733 5736 5738 5741 5745 5747 5748 5749 5750 5752 5753 5754 5755 5756 5757 5759 5760 5761 5762 5762 5763 5764 5764 5765 5766 5767 5768 5769 5769 5770 5770 5770 5771 5772 5773 5773 5773 5773 5773 5774 5774 5774 5774 5774 5775 5775 5775 5775 5775
5727 5728 5728 5730 5733 5735 5738 5741 5743 5745 5746 5747 5749 5750 5751 5752 5753 5754 5755 5756 5758 5759 5759 5760 5761 5761 5762 5763 5764 5765 5766 5767 5767 5768 5768 5769 5770 5770 5771 5771 5771 5771 5771 5772 5772 5772 5772 5772 5772 5772 5773 5773
5723 5724 5724 5727 5731 5733 5735 5738 5740 5742 5743 5744 5746 5747 5748 5749 5750 5751 5752 5753 5754 5756 5756 5758 5758 5759 5759 5760 5761 5762 5763 5764 5765 5765 5766 5766 5767 5768 5768 5769 5769 5769 5769 5770 5770 5770 5770 5770 5770 5770 5770 5770
5718 5719 5721 5725 5728 5730 5732 5734 5736 5739 5740 5741 5743 5744 5745 5746 5747 5748 5749 5750 5751 5752 5753 5755 5755 5756 5757 5757 5758 5760 5761 5762 5762 5763 5763 5764 5764 5765 5766 5766 5767 5767 5767 5767 5767 5768 5768 5767 5767 5768 5768 5768
5713 5716 5719 5723 5725 5727 5729 5731 5733 5735 5736 5738 5739 5740 5742 5743 5744 5745 5746 5747 5748 5749 5750 5751 5752 5753 5754 5755 5756 5757 5758 5759 5759 5760 5761 5761 5761 5762 5763 5764 5764 5765 5765 5765 5765 5765 5765 5765 5765 5765 5766 5766
5711 5713 5717 5719 5722 5723 5725 5727 5729 5732 5733 5735 5736 5737 5738 5739 5740 5741 5743 5744 5745 5746 5747 5748 5749 5750 5751 5752 5753 5754 5755 5756 5757 5757 5758 5758 5759 5759 5760 5761 5762 5762 5762 5763 5763 5763 5763 5763 5763 5763 5763 5763
5709 5711 5714 5716 5718 5720 5721 5723 5726 5728 5730 5731 5733 5734 5735 5736 5737 5738 5739 5741 5741 5742 5743 5744 5745 5747 5748 5749 5749 5750 5752 5753 5754 5754 5755 5756 5756 5757 5757 5758 5759 5759 5760 5760 5760 5761 5761 5761 5761 5761 5761 5761
5707 5709 5711 5713 5715 5716 5718 5719 5722 5724 5726 5727 5729 5730 5731 5732 5733 5734 5736 5737 5738 5739 5740 5741 5742 5743 5744 5745 5746 5747 5748 5750 5751 5752 5752 5753 5753 5754 5754 5755 5756 5757 5757 5758 5758 5758 5758 5758 5758 5758 5758 5759
5705 5707 5708 5709 5711 5713 5714 5716 5718 5720 5722 5724 5725 5726 5728 5729 5730 5731 5732 5733 5735 5736 5736 5737 5738 5740 5741 5742 5743 5744 5745 5746 5747 5748 5749 5750 5750 5751 5752 5752 5753 5754 5754 5755 5755 5755 5755 5755 5756 5756 5756 5756
5702 5703 5704 5706 5708 5709 5710 5712 5714 5716 5718 5720 5721 5722 5724 5725 5726 5727 5728 5730 5731 5732 5733 5734 5735 5736 5737 5738 5740 5741 5742 5743 5744 5745 5746 5747 5747 5748 5749 5749 5750 5750 5751 5752 5752 5752 5752 5753 5753 5753 5753 5753
5697 5699 5700 5702 5703 5705 5707 5708 5709 5711 5714 5715 5717 5719 5720 5721 5722 5723 5725 5726 5727 5728 5729 5730 5731 5732 5734 5735 5736 5737 5738 5739 5740 5741 5742 5743 5744 5745 5745 5746 5747 5747 5748 5748 5749 5749 5749 5749 5749 5750 5750 5750
5691 5693 5695 5697 5699 5700 5702 5703 5705 5707 5709 5711 5713 5714 5716 5717 5718 5719 5720 5722 5723 5724 5725 5726 5727 5728 5730 5731 5732 5733 5734 5735 5737 5738 5739 5740 5741 5741 5742 5743 5743 5744 5744 5745 5745 5746 5746 5746 5746 5746 5746 5747
5686 5688 5690 5692 5694 5696 5696 5698 5701 5703 5705 5707 5708 5710 5712 5713 5714 5715 5716 5717 5719 5720 5721 5722 5723 5724 5726 5727 5728 5730 5731 5732 5733 5734 5735 5736 5737 5738 5739 5739 5740 5740 5741 5741 5742 5743 5743 5743 5743 5743 5743 5743
5683 5684 5686 5689 5690 5691 5692 5694 5696 5698 5700 5702 5703 5705 5707 5708 5710 5711 5712 5713 5714 5716 5717 5718 5719 5720 5722 5723 5724 5726 5727 5728 5729 5730 5731 5732 5733 5734 5735 5736 5736 5737 5737 5738 5739 5739 5740 5740 5740 5739 5739 5739
5680 5680 5682 5685 5686 5687 5688 5690 5692 5693 5695 5697 5699 5701 5702 5704 5705 5706 5707 5708 5710 5711 5712 5714 5715 5716 5717 5719 5720 5722 5723 5724 5725 5726 5727 5729 5730 5731 5731 5732 5733 5733 5734 5735 5735 5736 5736 5736 5736 5736 5736 5736
5678 5677 5678 5680 5682 5683 5684 5686 5688 5689 5691 5692 5694 5696 5697 5699 5700 5701 5703 5704 5705 5707 5708 5709 5710 5712 5713 5714 5716 5717 5718 5720 5721 5722 5723 5724 5726 5727 5727 5728 5729 5730 5730 5731 5731 5732 5732 5732 5732 5732 5732 5732
5675 5674 5674 5676 5678 5679 5680 5682 5684 5685 5686 5688 5690 5691 5693 5694 5695 5697 5698 5700 5701 5702 5704 5705 5706 5707 5709 5710 5711 5713 5714 5716 5717 5718 5719 5720 5721 5723 5723 5724 5725 5726 5726 5727 5728 5728 5728 5729 5729 5729 5729 5729
5672 5671 5671 5672 5674 5675 5676 5678 5679 5680 5682 5683 5685 5686 5688 5689 5691 5692 5693 5695 5696 5698 5699 5701 5702 5703 5705 5706 5707 5708 5710 5711 5712 5713 5715 5716 5717 5718 5719 5720 5721 5722 5722 5723 5724 5724 5724 5725 5725 5724 5725 5725
5668 5668 5669 5670 5670 5671 5673 5674 5675 5676 5678 5679 5681 5682 5683 5685 5686 5687 5689 5690 5692 5693 5695 5697 5698 5699 5701 5702 5703 5704 5705 5706 5708 5709 5710 5711 5713 5714 5715 5716 5717 5717 5718 5719 5720 5720 5720 5721 5720 5720 5721 5721
5663 5665 5665 5666 5667 5668 5669 5671 5672 5672 5674 5675 5677 5678 5679 5680 5682 5683 5685 5686 5688 5689 5691 5693 5694 5695 5697 5698 5699 5700 5701 5702 5703 5704 5706 5707 5708 5709 5710 5711 5712 5713 5714 5715 5716 5716 5716 5716 5716 5716 5717 5717
5658 5659 5660 5661 5663 5665 5666 5667 5668 5668 5670 5671 5672 5674 5675 5677 5678 5679 5681 5682 5683 5685 5687 5689 5690 5690 5692 5694 5694 5695 5697 5698 5699 5700 5702 5702 5703 5705 5706 5707 5708 5709 5709 5710 5711 5711 5711 5711 5712 5712 5713 5713
5653 5655 5656 5658 5660 5661 5662 5664 5664 5664 5665 5667 5669 5671 5672 5673 5674 5675 5676 5678 5679 5681 5682 5684 5685 5686 5687 5689 5690 5691 5692 5694 5694 5696 5697 5698 5699 5700 5701 5702 5703 5704 5705 5705 5706 5706 5706 5707 5707 5707 5708 5708
5649 5651 5652 5654 5656 5657 5659 5660 5660 5660 5661 5664 5665 5667 5667 5668 5670 5670 5671 5673 5675 5676 5678 5679 5680 5681 5683 5684 5686 5686 5688 5689 5690 5691 5692 5693 5694 5695 5696 5697 5698 5699 5700 5700 5701 5701 5702 5702 5702 5703 5703 5703
5645 5646 5648 5650 5651 5653 5654 5656 5656 5656 5658 5660 5661 5662 5663 5664 5665 5666 5667 5668 5670 5671 5673 5674 5675 5676 5678 5679 5681 5681 5682 5684 5684 5685 5687 5688 5689 5690 5691 5692 5693 5694 5694 5695 5696 5696 5696 5696 5697 5698 5697 5697
5641 5642 5644 5645 5646 5648 5649 5651 5652 5653 5655 5657 5657 5658 5658 5660 5661 5662 5663 5664 5666 5667 5668 5669 5670 5671 5672 5674 5675 5676 5677 5678 5679 5680 5681 5683 5684 5685 5686 5687 5688 5688 5689 5689 5690 5691 5691 5691 5692 5692 5691 5691
5636 5638 5640 5641 5642 5644 5645 5647 5648 5650 5651 5652 5654 5654 5654 5655 5657 5658 5659 5660 5661 5662 5664 5665 5666 5667 5668 5669 5670 5671 5672 5673 5674 5675 5676 5677 5678 5679 5680 5681 5682 5683 5683 5684 5685 5685 5685 5686 5686 5686 5686 5686
5633 5634 5635 5637 5638 5639 5641 5643 5644 5646 5647 5648 5649 5650 5650 5650 5652 5654 5654 5656 5657 5658 5659 5660 5661 5662 5663 5664 5665 5666 5667 5668 5669 5670 5671 5672 5673 5674 5675 5676 5677 5678 5677 5678 5678 5679 5680 5680 5680 5680 5680 5681